{"data":{"norad_id":62948,"epoch":"2026-09-21T17:47:39.532128Z","epoch_age_seconds":57854,"freshness":"FRESH","line1":"1 62948U 25029A   26264.74142977  .00018164  00000+0  54735-3 0  9994","line2":"2 62948  53.1569  36.1701 0000838  97.3808 262.7290 15.34403897 91453","mean_motion":15.34403897,"eccentricity":8.38e-5,"inclination_deg":53.1569,"raan_deg":36.1701,"arg_perigee_deg":97.3808,"mean_anomaly_deg":262.729,"bstar":0.00054735,"rev_number":9145,"period_min":93.847519731632,"perigee_km":462.11839608486,"apogee_km":463.26491896787,"semimajor_km":6840.8286575264,"source":"CELESTRAK","updated_at":"2026-09-22T09:00:49.710950Z"}}